Location: Maddington
(51.2000°N, 1.9167°W)
Time: 21:36:06
(UTC+00:00)

NOSS 3-2 (A) - Pass Details

Date: 17 January 2021
Orbit: 783 x 1425 km, 63.4° (Epoch: 07 March)

Event Time Altitude Azimuth Distance (km) Brightness Sun altitude
Rises 18:07:40 0° 304° (NW) 4,109 7.4 -14.3°
Reaches altitude 10° 18:12:53 10° 274° (W) 3,290 7.4 -15.1°
Maximum altitude 18:15:08 11° 258° (WSW) 3,236 7.6 -15.5°
Drops below altitude 10° 18:17:27 10° 241° (WSW) 3,392 7.5 -15.8°
Sets 18:23:09 0° 212° (SSW) 4,453 7.6 -16.7°
